Location: Buffign�court
(47.8126°N, 6.0176°E)
Time: 15:13:43
(UTC+00:00)

Cosmos 1455 - Pass Details

Date: 16 June 2021
Orbit: 496 x 522 km, 82.5° (Epoch: 31 July)

Event Time Altitude Azimuth Distance (km) Brightness Sun altitude
Rises 23:31:08 0° 340° (NNW) 2,651 7.2 -18.8°
Reaches altitude 10° 23:33:29 10° 329° (NNW) 1,754 5.8 -18.8°
Maximum altitude 23:36:46 27° 270° (W) 1,006 3.6 -18.8°
Enters shadow 23:37:39 25° 246° (WSW) 1,074 3.5 -18.8°
